Flag for Germany Weather past 2 weeks in Melsungen, Hesse, Germany

Now
63 °F

Overcast.


Feels Like: 63 °F
Forecast: 53 / 70 °F
Wind: 2 mph from Northwest

Location: Fritzlar

Current Time: Aug 29, 2014 at 10:59:17 AM

Latest Report: Aug 29, 2014 at 10:00 AM


Visibility: 11 mi

Pressure: 30.00 "Hg

Humidity: 88%

Dew point: 59 °F

Location of MelsungenLocation

Historic Weather in Melsungen — Graph

°F

Melsungen temperature yesterday

Maximum temperature yesterday: 72 °F (at 5:00 PM)
Minimum temperature yesterday: 42 °F (at 5:00 AM)
Average temperature yesterday: 57 °F

Past Weeks' High & Low Weather Summary

 TemperatureHumidityPressure
High72 °F (Aug 28, 5:00 PM)98% (Aug 25, 8:00 AM)30.11 "Hg (Aug 25, 8:00 AM)
Low42 °F (Aug 28, 5:00 AM)37% (Aug 18, 5:00 PM)29.69 "Hg (Aug 18, 3:00 PM)
Average57 °F77%29.94 "Hg
* Reported Aug 14 9:00 AM — Aug 29 9:00 AM, Melsungen, Weather by CustomWeather, © 2014

Note: Actual official high and low records may vary slightly from our data, if they occured in-between our weather recording intervals... More about our weather records

Advertising

Melsungen weather history for previous 24 hours

 ConditionsComfort  
Time TempWeatherWind HumidityBarometerVisibility
9:00 AM
Aug 29
62 °FOvercast.2 mph90%29.98 "Hg12 mi
8:00 AM60 °FOvercast.2 mph93%29.98 "Hg12 mi
7:00 AM60 °FOvercast.1 mph94%29.97 "Hg12 mi
6:00 AM60 °FOvercast.2 mph93%29.96 "Hg11 mi
5:00 AM59 °FOvercast.1 mph93%29.97 "Hg11 mi
4:00 AM60 °FOvercast.1 mph91%29.97 "Hg11 mi
3:00 AM59 °FOvercast.2 mph94%29.98 "Hg11 mi
2:00 AM59 °FPassing clouds.1 mph92%29.99 "Hg12 mi
1:00 AM60 °FPassing clouds.1 mph89%29.99 "Hg16 mi
12:00 AM65 °FPassing clouds.3 mph80%29.99 "Hg19 mi
11:00 PM
Aug 28
65 °FOvercast.1 mph78%29.99 "Hg16 mi
10:00 PM64 °FOvercast.1 mph82%29.99 "Hg16 mi
9:00 PM67 °FOvercast.2 mph73%29.98 "Hg19 mi
8:00 PM68 °FOvercast.1 mph68%29.98 "Hg25 mi
7:00 PM69 °FOvercast.2 mph64%29.98 "Hg25 mi
6:00 PM71 °FOvercast.3 mph58%29.98 "Hg25 mi
5:00 PM72 °FOvercast.3 mph55%29.98 "Hg25 mi
4:00 PM70 °FOvercast.6 mph57%30.00 "Hg25 mi
3:00 PM71 °FPartly sunny.5 mph55%30.01 "Hg25 mi
2:00 PM70 °FOvercast.3 mph59%30.03 "Hg25 mi
1:00 PM67 °FScattered clouds.3 mph64%30.04 "Hg25 mi
12:00 PM63 °FPassing clouds.2 mph73%30.06 "Hg19 mi
11:00 AM57 °FScattered clouds.1 mph78%30.09 "Hg16 mi
10:00 AM49 °FFog.1 mph97%30.10 "Hg1 mi
Weather by CustomWeather, © 2014

See weather overviewHow to use our weather pages